When you browse on this site, cookies collect data to enhance your experience and personalize the content and advertising you see.
Visit our Privacy Policy to learn more. By continuing to use the site, you agree to this use of cookies and data.
  • In Hungary
  • List of Countries
  • For 7 days
  • Water Temperature
  • Satellite Maps
  • Weather Map
  • News
  • Weather Widgets
  • user-avatar
    Login

    Hourly Weather Bialotarsk

    Today, 18 January, Friday

    Time Temperature Precipitation Wind Pressure Humidity
    00:00 +1°C° 0 mm 6 mps 740 mmHg 86%
    01:00 +1°C° 0 mm 6 mps 740 mmHg 83%
    02:00 0°C° 0 mm 7 mps 740 mmHg 82%
    03:00 0°C° 0 mm 7 mps 740 mmHg 81%
    04:00 0°C° 0 mm 7 mps 741 mmHg 80%
    05:00 -1°C° 0 mm 7 mps 741 mmHg 81%
    06:00 -1°C° 0 mm 7 mps 742 mmHg 82%
    07:00 -2°C° 0 mm 7 mps 743 mmHg 83%
    08:00 -2°C° 0.2 mm 7 mps 744 mmHg 80%
    09:00 -2°C° 0.2 mm 6 mps 745 mmHg 78%
    10:00 -2°C° 0.2 mm 6 mps 746 mmHg 75%
    11:00 -2°C° 0 mm 6 mps 747 mmHg 71%
    12:00 -2°C° 0 mm 6 mps 748 mmHg 66%
    13:00 -1°C° 0 mm 5 mps 749 mmHg 61%
    14:00 -1°C° 0 mm 5 mps 750 mmHg 64%
    15:00 -2°C° 0 mm 4 mps 750 mmHg 67%
    16:00 -2°C° 0 mm 3 mps 751 mmHg 69%
    17:00 -3°C° 0 mm 4 mps 751 mmHg 71%
    18:00 -3°C° 0 mm 4 mps 752 mmHg 74%
    19:00 -3°C° 0 mm 4 mps 752 mmHg 76%
    20:00 -3°C° 0 mm 4 mps 753 mmHg 76%
    21:00 -3°C° 0 mm 4 mps 753 mmHg 77%
    22:00 -3°C° 0 mm 4 mps 753 mmHg 77%
    23:00 -3°C° 0 mm 4 mps 754 mmHg 79%

    Tomorrow, 19 January, Saturday

    Time Temperature Precipitation Wind Pressure Humidity
    00:00 -4°C° 0 mm 4 mps 754 mmHg 80%
    01:00 -4°C° 0 mm 3 mps 754 mmHg 82%
    02:00 -4°C° 0 mm 3 mps 754 mmHg 82%
    03:00 -2°C° 0 mm 3 mps 754 mmHg 83%
    04:00 -3°C° 0 mm 4 mps 754 mmHg 83%
    05:00 -4°C° 0 mm 3 mps 755 mmHg 84%
    06:00 -4°C° 0 mm 3 mps 755 mmHg 85%
    07:00 -4°C° 0 mm 3 mps 755 mmHg 86%
    08:00 -4°C° 0 mm 3 mps 755 mmHg 84%
    09:00 -2°C° 0 mm 3 mps 756 mmHg 82%
    10:00 -2°C° 0 mm 3 mps 756 mmHg 80%
    11:00 -1°C° 0 mm 3 mps 756 mmHg 76%
    12:00 -1°C° 0 mm 3 mps 756 mmHg 73%
    13:00 +1°C° 0 mm 2 mps 756 mmHg 69%
    14:00 -1°C° 0 mm 2 mps 755 mmHg 72%
    15:00 -2°C° 0 mm 2 mps 755 mmHg 75%
    16:00 -2°C° 0 mm 2 mps 755 mmHg 78%
    17:00 -2°C° 0 mm 2 mps 755 mmHg 78%
    18:00 -1°C° 0 mm 1 mps 755 mmHg 79%
    19:00 -1°C° 0 mm 1 mps 755 mmHg 80%
    20:00 -1°C° 0 mm 1 mps 755 mmHg 79%
    21:00 -1°C° 0 mm 1 mps 755 mmHg 78%
    22:00 -1°C° 0 mm 1 mps 755 mmHg 78%
    23:00 -1°C° 0 mm 1 mps 755 mmHg 78%

    Day after tomorrow, 20 January, Sunday

    Time Temperature Precipitation Wind Pressure Humidity
    00:00 -1°C° 0 mm 1 mps 755 mmHg 78%
    01:00 -2°C° 0 mm 1 mps 755 mmHg 79%
    02:00 -2°C° 0 mm 1 mps 754 mmHg 79%
    03:00 -2°C° 0 mm 1 mps 754 mmHg 80%
    04:00 -2°C° 0 mm 1 mps 753 mmHg 80%
    05:00 -2°C° 0 mm 1 mps 753 mmHg 80%
    06:00 -3°C° 0 mm 0 mps 753 mmHg 80%
    07:00 -3°C° 0 mm 0 mps 753 mmHg 80%
    08:00 -3°C° 0 mm 0 mps 753 mmHg 76%
    09:00 -2°C° 0 mm 0 mps 754 mmHg 72%
    10:00 -2°C° 0 mm 0 mps 754 mmHg 69%
    11:00 -1°C° 0 mm 0 mps 753 mmHg 65%
    12:00 0°C° 0 mm 1 mps 753 mmHg 62%
    13:00 +1°C° 0 mm 1 mps 753 mmHg 59%
    14:00 0°C° 0 mm 1 mps 753 mmHg 62%
    15:00 0°C° 0 mm 1 mps 753 mmHg 65%
    16:00 -1°C° 0 mm 1 mps 753 mmHg 69%
    17:00 -1°C° 0 mm 1 mps 753 mmHg 70%
    18:00 -1°C° 0 mm 1 mps 754 mmHg 71%
    19:00 -4°C° 0 mm 2 mps 754 mmHg 73%
    20:00 -4°C° 0 mm 2 mps 754 mmHg 74%
    21:00 -4°C° 0 mm 2 mps 754 mmHg 75%
    22:00 -4°C° 0 mm 2 mps 755 mmHg 77%
    23:00 -4°C° 0 mm 2 mps 755 mmHg 80%

    21 January, Monday

    Time Temperature Precipitation Wind Pressure Humidity
    00:00 -4°C° 0 mm 2 mps 755 mmHg 84%
    01:00 -5°C° 0 mm 3 mps 755 mmHg 87%
    02:00 -4°C° 0 mm 2 mps 756 mmHg 89%
    03:00 -4°C° 0 mm 2 mps 756 mmHg 91%
    04:00 -4°C° 0 mm 2 mps 756 mmHg 94%
    05:00 -4°C° 0 mm 2 mps 756 mmHg 94%
    06:00 -4°C° 0 mm 2 mps 757 mmHg 94%
    07:00 -2°C° 0 mm 1 mps 757 mmHg 94%
    08:00 -1°C° 0 mm 1 mps 757 mmHg 92%
    09:00 -1°C° 0 mm 1 mps 758 mmHg 89%
    10:00 -1°C° 0 mm 1 mps 758 mmHg 87%
    11:00 0°C° 0 mm 1 mps 758 mmHg 84%
    12:00 0°C° 0 mm 1 mps 758 mmHg 81%
    13:00 -1°C° 0 mm 2 mps 758 mmHg 78%
    14:00 -2°C° 0 mm 2 mps 758 mmHg 80%
    15:00 -2°C° 0 mm 2 mps 758 mmHg 82%
    16:00 -3°C° 0 mm 2 mps 757 mmHg 84%
    17:00 -3°C° 0 mm 2 mps 757 mmHg 84%
    18:00 -3°C° 0 mm 2 mps 757 mmHg 85%
    19:00 -3°C° 0 mm 2 mps 757 mmHg 85%
    20:00 -3°C° 0 mm 2 mps 757 mmHg 85%
    21:00 -3°C° 0 mm 2 mps 757 mmHg 84%
    22:00 -3°C° 0 mm 2 mps 757 mmHg 83%
    23:00 -3°C° 0 mm 2 mps 756 mmHg 82%

    22 January, Tuesday

    Time Temperature Precipitation Wind Pressure Humidity
    00:00 -3°C° 0 mm 2 mps 756 mmHg 81%
    01:00 -3°C° 0 mm 2 mps 756 mmHg 80%
    02:00 -3°C° 0 mm 2 mps 755 mmHg 80%
    03:00 -3°C° 0 mm 2 mps 755 mmHg 81%
    04:00 -3°C° 0 mm 2 mps 754 mmHg 81%
    05:00 -3°C° 0 mm 2 mps 754 mmHg 81%
    06:00 -4°C° 0 mm 3 mps 754 mmHg 81%
    07:00 -4°C° 0 mm 3 mps 753 mmHg 82%
    08:00 -4°C° 0 mm 3 mps 753 mmHg 78%
    09:00 -4°C° 0 mm 3 mps 753 mmHg 74%
    10:00 -2°C° 0 mm 3 mps 753 mmHg 70%
    11:00 -2°C° 0 mm 3 mps 753 mmHg 66%
    12:00 -2°C° 0 mm 3 mps 752 mmHg 62%
    13:00 -1°C° 0 mm 3 mps 752 mmHg 59%
    14:00 -2°C° 0 mm 2 mps 751 mmHg 62%
    15:00 -2°C° 0 mm 2 mps 751 mmHg 65%
    16:00 -3°C° 0 mm 2 mps 751 mmHg 68%
    17:00 -4°C° 0 mm 3 mps 751 mmHg 71%
    18:00 -4°C° 0 mm 3 mps 751 mmHg 73%
    19:00 -4°C° 0 mm 3 mps 750 mmHg 75%
    20:00 -5°C° 0 mm 3 mps 750 mmHg 76%
    21:00 -5°C° 0 mm 3 mps 750 mmHg 77%
    22:00 -5°C° 0 mm 3 mps 750 mmHg 78%
    23:00 -5°C° 0 mm 4 mps 750 mmHg 79%

    23 January, Wednesday

    Time Temperature Precipitation Wind Pressure Humidity
    00:00 -5°C° 0 mm 4 mps 750 mmHg 80%
    01:00 -7°C° 0 mm 4 mps 750 mmHg 81%
    02:00 -7°C° 0 mm 4 mps 749 mmHg 80%
    03:00 -7°C° 0 mm 4 mps 749 mmHg 80%
    04:00 -7°C° 0 mm 4 mps 749 mmHg 80%
    05:00 -7°C° 0 mm 5 mps 749 mmHg 79%
    06:00 -8°C° 0 mm 5 mps 749 mmHg 77%
    07:00 -8°C° 0 mm 5 mps 748 mmHg 76%
    08:00 -8°C° 0 mm 5 mps 749 mmHg 74%
    09:00 -7°C° 0 mm 5 mps 749 mmHg 72%
    10:00 -7°C° 0 mm 5 mps 749 mmHg 70%
    11:00 -7°C° 0 mm 5 mps 749 mmHg 68%
    12:00 -6°C° 0 mm 5 mps 748 mmHg 66%
    13:00 -6°C° 0 mm 5 mps 748 mmHg 64%
    14:00 -6°C° 0 mm 5 mps 748 mmHg 66%
    15:00 -6°C° 0 mm 5 mps 748 mmHg 69%
    16:00 -6°C° 0 mm 5 mps 748 mmHg 71%
    17:00 -7°C° 0 mm 5 mps 748 mmHg 74%
    18:00 -7°C° 0 mm 5 mps 748 mmHg 77%
    19:00 -8°C° 0 mm 6 mps 748 mmHg 80%
    20:00 -8°C° 0 mm 6 mps 748 mmHg 79%
    21:00 -8°C° 0 mm 6 mps 748 mmHg 78%
    22:00 -8°C° 0 mm 6 mps 749 mmHg 78%
    23:00 -7°C° 0 mm 5 mps 749 mmHg 78%
    Show more